{"data":{"norad_id":56535,"epoch":"2026-05-25T01:02:47.285376Z","epoch_age_seconds":70557,"freshness":"FRESH","line1":"1 56535U 23065AJ  26145.04360284 -.00001237  00000+0 -35422-4 0  9999","line2":"2 56535  43.0052 155.4350 0000999 253.0686 107.0057 15.27577573168116","mean_motion":15.27577573,"eccentricity":9.99e-5,"inclination_deg":43.0052,"raan_deg":155.435,"arg_perigee_deg":253.0686,"mean_anomaly_deg":107.0057,"bstar":-3.5422e-5,"rev_number":16811,"period_min":94.266898483721,"perigee_km":482.37093014338,"apogee_km":483.74179657738,"semimajor_km":6861.1933633604,"source":"CELESTRAK","updated_at":"2026-05-25T13:38:18.113091Z"}}